Location: El Portezuelo
(28.4984°N, 16.3589°W)
Time: 09:50:29
(UTC+00:00)

STARLINK-1035 - Pass Details

Date: 20 January 2020
Orbit: 568 x 571 km, 53.0° (Epoch: 17 February)

Event Time Altitude Azimuth Distance (km) Brightness Sun altitude
Exits shadow 05:29:06 13° 148° (SSE) 1,662 6.4 -32.5°
Drops below altitude 10° 05:33:24 10° 83° (E) 1,910 7.2 -31.5°
Enters shadow 06:44:04 -48° 224° (SW) 10,252 10.0 -16.3°
Maximum altitude 07:11:52 44° 315° (NW) 819 4.1 -10.4°
